Погода в Линёве

Россия / Новосибирская область     54°27′25″N   83°22′53″E
темп.,
°C
ветер,
м/с
пор.,
м/с
влажн.,
%
обл.,
%
осадки,
мм/ч
давл.,
гПа
погр.,
м
17 июня, чт
чт1701:00+16ююз228799 1.8 101118
04:00+14ююз338435 0.1 101136
07:00+16юз27868 0.1 1010185
10:00+22юз346680 0.0 1010510
13:00+25юз45575 0.0 10091325
16:00+25зсз565663 0.0 10081683
19:00+23зсз586948 0.0 1007734
22:00+18юз22870 0.6 100811
18 июня, пт
пт1801:00+16юз22900 0.6 100811
04:00+15ю3392100 0.0 100737
07:00+17ююз249271 0.0 1007134
10:00+22юз3473100 0.0 1006532
13:00+26юз565938 0.0 10041198
16:00+28юз465159 0.0 10031656
19:00+28ю14604 0.0 10021180
22:00+21ю35790 0.0 100160
19 июня, сб
сб1901:00+18ю3583100 0.1 100181
04:00+16ююв3691100 0.5 99992
07:00+18ююв3108997 0.5 998263
10:00+22ю5876100 0.1 998481
13:00+24юз5763100 0.1 9981061
16:00+22з7873100 0.1 999952
19:00+16з797974 0.9 1001744
22:00+13з597499 0.0 1003759
20 июня, вс
вс2001:00+11з477055 0.0 1004697
04:00+8зюз2591100 0.6 1005450
07:00+7юз598771 0.6 1007928
10:00+9юз71063100 0.1 10081317
13:00+12юз81266100 0.1 10091712
16:00+13ююз7116697 0.2 10081349
19:00+14ююз712645 0.8 10081484
22:00+12ю611695 0.1 1008442
21 июня, пн
пн2101:00+9ю5138576 0.1 1008317
04:00+7ююв5139099 0.0 1008267
07:00+10ююв7147652 0.0 1007399
10:00+15юв8135968 0.0 1005708
13:00+19ююв91252100 0.0 10041998
16:00+17ююв81268100 0.4 10031547
19:00+16ююв71266100 0.8 1002979
22:00+13ююв61481100 0.2 1001798